Terug naar catalogus

ORBCOMM FM 7

ActiefCommunicatieLEO
NORAD 25119·PAYLOAD·🇺🇸 United States

Gelanceerd Dec 23, 1997 vanaf Cape Canaveral Space Force Station

Loading…

Volgende Passages (komende 24 uur)

TLE

VersSource: Space-Track

Epoch: Sep 14, 2026, 07:15 UTC

1 25119U 97084H   26257.30218909  .00000790  00000-0  25080-3 0  9994
2 25119  45.0150 344.3681 0002005 301.4996  58.5660 14.47751748507294

Volg ORBCOMM FM 7 in realtime met AllMySat

Download on the App Store